This is the latest recevied weather packets stored in our database for station/object W5ADC. If no packets are shown the sender has not sent any weather packets the latest 10 day(s).
| Time | Temp. | Humidity | Pressure | Rain* | Wind** | Luminosity | Snow |
|---|---|---|---|---|---|---|---|
| 1777945526 | 24.44° C | 69% | 1002.4 hPa | 0 mm | - | 0 W/m² | - |
| 1777945224 | 24.44° C | 68% | 1002.3 hPa | 0 mm | - | 0 W/m² | - |
| 1777944921 | 24.44° C | 68% | 1002.3 hPa | 0 mm | - | 0 W/m² | - |
| 1777944618 | 24.44° C | 68% | 1002.4 hPa | 0 mm | - | 0 W/m² | - |
| 1777944316 | 24.44° C | 68% | 1002.4 hPa | 0 mm | - | 0 W/m² | - |
| 1777944013 | 25° C | 67% | 1002.5 hPa | 0 mm | - | 1 W/m² | - |
| 1777943708 | 25° C | 67% | 1002.3 hPa | 0 mm | - | 1 W/m² | - |
| 1777943406 | 25° C | 67% | 1002.4 hPa | 0 mm | - | 2 W/m² | - |
| 1777943101 | 25° C | 67% | 1002.3 hPa | 0 mm | - | 3 W/m² | - |
| 1777942797 | 25° C | 66% | 1002.4 hPa | 0 mm | - | 6 W/m² | - |
| 1777942494 | 25° C | 66% | 1002.2 hPa | 0 mm | - | 9 W/m² | - |
| 1777942192 | 25° C | 66% | 1002.2 hPa | 0 mm | - | 13 W/m² | - |
| 1777941889 | 25° C | 65% | 1002.4 hPa | 0 mm | - | 18 W/m² | - |
| 1777941585 | 25° C | 65% | 1002.4 hPa | 0 mm | - | 23 W/m² | - |
| 1777941283 | 25° C | 65% | 1002.2 hPa | 0 mm | - | 28 W/m² | - |
| 1777940979 | 25° C | 65% | 1002.5 hPa | 0 mm | - | 31 W/m² | - |
| 1777940675 | 25.56° C | 64% | 1002.2 hPa | 0 mm | - | 40 W/m² | - |
| 1777940374 | 25.56° C | 64% | 1002.5 hPa | 0 mm | - | 46 W/m² | - |
| 1777940071 | 25.56° C | 64% | 1002.5 hPa | 0 mm | - | 64 W/m² | - |
| 1777939768 | 25.56° C | 63% | 1002.5 hPa | 0 mm | - | 82 W/m² | - |
| 1777939466 | 25.56° C | 63% | 1002.4 hPa | 0 mm | - | 103 W/m² | - |
| 1777939162 | 25.56° C | 63% | 1002.6 hPa | 0 mm | - | 85 W/m² | - |
| 1777938860 | 25.56° C | 63% | 1002.4 hPa | 0 mm | - | 99 W/m² | - |
| 1777938555 | 25.56° C | 63% | 1002.6 hPa | 0 mm | - | 126 W/m² | - |
| 1777938253 | 25.56° C | 63% | 1002.9 hPa | 0 mm | - | 144 W/m² | - |
* Rain latest hour (hover to see other rain measurements)
** Current wind speed in m/s (hover to see current wind gust speed)